Wind_Speed
41 40 40 40 40 41 42 42 43 44 45 46 47 48 50 51 52 54 54 55 56 57 57 58 58 58 58 58 58 58 58 58 58 57 56 55 55 55 56 56 56 55 55
44 44 43 43 43 44 44 45 46 47 48 49 50 52 53 54 55 56 57 58 58 59 59 60 60 60 60 59 59 59 59 58 58 57 57 56 56 56 56 56 55 55 54
47 47 47 47 47 47 47 48 49 50 51 52 53 54 55 56 58 59 59 60 61 61 61 61 61 61 61 60 60 60 60 59 58 58 57 57 57 57 56 55 55 54 53
50 50 50 50 50 50 50 51 51 52 53 54 56 57 57 58 59 60 61 62 62 62 62 63 62 62 61 61 61 60 60 59 59 58 58 57 57 57 56 55 54 53 54
51 51 52 52 52 53 53 54 54 55 56 57 58 58 59 60 61 62 63 63 63 63 63 63 63 61 61 60 59 59 59 60 59 58 58 57 57 57 54 54 54 54 54
53 53 53 53 54 54 55 56 56 57 58 59 59 60 61 62 62 62 63 63 63 62 62 62 62 61 60 60 59 59 59 60 58 58 58 56 56 55 54 54 54 54 54
53 53 54 54 54 55 56 56 57 58 59 60 60 61 61 61 62 62 63 63 62 62 62 62 61 61 60 59 59 59 58 57 58 59 58 55 55 56 55 55 55 54 54
52 53 54 55 55 55 56 56 57 58 59 59 59 60 60 60 61 61 61 61 61 60 60 59 59 58 58 58 58 58 57 57 57 58 56 57 57 56 54 54 55 54 54
51 52 52 53 53 54 55 55 56 56 57 58 58 58 58 58 59 59 59 59 59 58 57 56 56 55 55 55 55 55 56 56 57 57 57 57 57 56 56 55 54 54 54
50 50 50 50 51 52 53 54 54 55 56 56 56 56 57 57 57 57 57 57 57 56 56 55 54 54 55 55 56 56 56 57 58 57 57 57 56 55 55 54 54 54 54
48 48 48 48 49 50 51 51 52 53 53 53 54 54 54 54 55 55 55 56 56 55 55 55 54 54 55 56 56 56 56 56 56 56 55 55 54 55 55 54 54 55 57
46 46 47 47 47 48 49 49 50 51 51 51 51 51 52 52 52 53 52 52 53 53 53 53 53 54 54 54 54 54 54 55 55 55 54 54 55 55 55 56 56 57 58
45 45 45 45 46 46 47 47 48 48 49 49 49 50 50 51 51 51 51 50 51 51 52 52 53 53 52 53 53 54 54 54 54 54 54 55 56 56 56 56 58 60 61
44 44 44 44 44 44 45 46 46 47 47 48 49 49 50 50 50 50 50 51 51 51 52 52 52 52 52 53 53 52 52 52 54 55 55 56 57 56 57 58 60 61 63
43 43 43 43 43 44 44 44 45 46 47 47 48 48 49 49 49 50 50 50 51 51 51 51 51 51 52 52 51 51 52 54 55 56 56 57 57 58 60 62 62 63 64
44 43 43 43 43 44 44 44 45 46 46 47 47 48 49 49 49 50 50 51 51 52 52 52 52 52 52 52 53 53 54 55 56 57 57 58 59 60 61 62 63 64 66
44 44 44 44 44 45 45 45 46 47 47 48 48 49 49 50 50 50 51 51 51 52 52 52 52 53 53 54 54 55 56 56 57 58 59 61 62 62 63 65 66 67 67
46 46 46 46 46 46 47 47 48 48 49 50 50 50 51 51 51 51 51 52 52 52 53 53 53 54 55 55 56 56 57 58 59 61 62 63 64 65 66 67 68 68 68
47 47 48 48 48 48 49 49 50 50 51 51 52 52 52 52 53 53 53 54 55 55 56 56 56 57 57 58 58 59 60 61 62 63 64 65 66 67 68 69 69 69 70
50 50 50 50 50 51 51 52 52 52 53 53 54 54 55 55 55 56 56 57 57 58 58 59 60 60 60 61 62 62 64 65 66 66 67 68 69 70 70 71 71 72 71
52 52 53 53 53 53 53 54 54 55 55 55 56 56 57 58 58 59 59 60 61 62 62 63 63 64 64 65 66 67 67 68 69 70 70 71 72 72 73 73 74 74 74
54 55 55 55 55 56 56 57 58 58 58 59 59 60 61 61 62 63 63 64 65 66 66 67 67 68 69 69 70 71 71 72 72 73 74 74 74 75 75 75 75 75 75
56 56 57 58 58 59 60 60 61 61 62 63 63 64 65 65 66 67 68 69 69 70 71 71 72 73 73 74 74 74 75 75 75 76 76 76 76 76 76 76 76 76 76
59 60 61 61 62 63 64 64 65 65 66 67 67 68 69 69 70 71 72 72 73 74 75 75 76 77 77 77 77 77 78 77 77 77 77 77 77 77 76 76 76 75 75
63 64 64 65 66 67 68 69 69 70 70 71 71 72 72 73 74 75 76 77 77 78 79 79 80 80 80 80 79 79 79 78 78 78 77 77 76 76 75 74 74 73 72
66 67 68 68 69 70 71 72 73 73 73 74 74 75 76 77 78 79 79 80 81 81 82 82 82 81 81 80 80 79 78 78 77 76 75 74 73 72 72 71 70 69 68
Wind_Direction
261 262 263 264 264 265 266 267 267 268 268 270 271 272 273 274 275 276 278 279 280 282 284 285 286 287 289 289 291 292 293 294 295 296 296 296 297 298 299 299 300 301 303
260 262 263 264 265 266 266 266 267 267 268 269 270 271 273 273 274 276 277 278 280 281 283 284 285 286 287 288 289 290 291 292 293 294 294 295 296 297 297 298 299 300 302
260 262 263 263 264 265 266 266 266 267 268 269 270 271 272 273 274 275 276 277 279 280 281 282 284 285 286 287 288 289 289 290 291 293 294 294 294 295 296 296 298 299 300
261 262 262 263 263 264 265 266 266 267 268 268 269 270 271 272 274 275 276 277 279 280 281 282 284 285 286 287 287 288 288 289 291 292 292 292 293 294 294 295 296 297 298
260 261 261 262 263 264 264 265 266 267 268 269 269 270 271 273 274 275 277 278 279 280 281 282 284 285 286 286 286 288 288 288 289 291 291 291 292 293 293 294 295 296 297
260 261 262 263 264 265 265 266 267 268 269 270 271 272 273 274 275 276 277 278 279 281 282 283 284 285 285 284 285 287 288 288 288 289 290 291 292 292 292 294 295 296 297
260 261 262 263 265 266 266 267 268 269 271 272 273 274 275 276 277 278 278 279 280 282 283 283 284 284 285 285 286 287 287 286 287 288 288 289 291 291 292 293 294 295 296
260 261 262 263 265 266 267 268 270 271 272 273 275 276 277 278 279 279 280 281 282 282 283 283 284 285 285 285 285 286 286 286 286 287 287 288 289 289 290 291 292 294 296
260 261 263 264 265 267 268 269 270 272 273 274 275 277 278 278 279 280 280 280 281 282 283 283 283 284 284 283 284 284 285 284 284 286 286 286 286 288 290 291 292 294 295
262 263 264 265 267 268 269 271 272 273 274 275 276 277 278 279 280 280 281 281 281 282 282 283 283 283 283 283 283 284 283 283 283 284 285 285 285 287 288 290 293 294 295
264 265 266 267 268 270 271 273 274 274 275 276 277 278 279 280 280 281 282 283 282 283 283 284 283 283 284 283 283 283 282 283 284 284 285 284 285 287 288 290 293 294 294
266 267 268 268 270 271 273 274 275 276 277 278 279 279 280 280 281 282 282 283 283 284 284 284 285 285 285 284 283 283 282 283 283 283 284 284 286 287 288 291 292 292 293
266 267 268 269 270 272 273 275 276 277 278 278 279 280 280 281 282 283 284 284 285 286 286 286 286 286 286 285 283 283 283 283 283 283 284 285 287 287 288 289 291 291 292
267 268 269 270 271 272 274 275 276 277 277 278 279 280 281 282 283 283 284 285 286 286 286 287 287 287 286 286 285 284 283 284 284 285 286 286 287 288 289 289 289 290 291
266 267 268 269 271 272 273 275 276 278 278 279 280 280 282 283 283 284 284 285 286 286 287 287 286 287 286 286 285 284 284 284 284 285 285 286 286 286 287 287 288 289 291
265 266 267 268 270 272 274 275 277 278 279 280 280 281 282 283 284 285 285 286 287 287 287 287 287 287 287 286 286 286 285 285 285 285 285 285 285 286 287 288 289 290 291
265 266 267 269 271 273 275 276 277 279 280 281 281 282 283 283 284 284 284 285 286 287 287 287 287 287 287 287 287 286 286 286 285 285 285 286 286 287 287 287 288 290 290
265 266 268 270 271 273 275 277 278 279 280 281 282 283 283 284 284 284 285 285 286 287 287 287 287 287 287 287 287 286 286 286 286 286 286 286 287 287 288 288 289 290 290
265 267 269 270 272 274 275 276 278 279 280 281 282 283 283 284 284 285 286 286 287 287 287 287 287 287 287 287 287 287 287 287 287 287 287 287 287 288 288 289 289 290 290
266 268 269 271 272 274 275 277 278 279 280 281 282 283 283 284 285 285 286 287 287 287 288 288 288 288 288 288 288 288 288 288 288 288 288 288 288 288 288 289 289 289 290
267 268 270 271 273 274 275 277 278 279 280 281 282 283 283 284 285 285 286 287 287 288 288 288 289 289 289 289 289 289 289 289 289 289 289 289 289 288 288 289 289 289 289
268 269 270 272 274 275 276 277 278 279 280 281 282 282 283 284 284 285 286 287 287 288 289 289 290 290 290 290 290 290 290 290 290 289 289 289 288 288 288 288 287 287 287
269 270 271 273 274 275 276 277 278 279 280 281 282 283 283 284 285 286 287 287 288 289 290 290 290 291 291 291 291 291 290 290 290 289 289 288 288 288 287 287 286 286 286
270 271 272 274 275 276 277 278 279 280 281 281 282 283 284 285 285 286 287 288 289 290 290 290 290 290 290 290 290 290 290 290 290 289 289 288 287 287 286 286 285 285 285
270 271 273 274 275 276 277 278 279 280 281 282 283 283 284 285 286 287 288 289 289 290 290 290 290 290 290 290 290 290 290 290 289 289 288 288 287 286 286 286 285 285 285
270 271 272 273 274 276 277 278 280 281 282 283 283 284 285 286 287 288 288 288 289 289 289 290 290 290 290 290 290 289 289 289 289 289 288 287 287 286 286 285 285 284 284
Height
5786 5787 5788 5789 5789 5789 5789 5789 5789 5788 5787 5786 5785 5783 5781 5780 5777 5775 5773 5771 5768 5765 5762 5759 5756 5752 5749 5744 5740 5736 5731 5727 5723 5720 5716 5711 5706 5701 5696 5691 5686 5681 5675
5774 5775 5776 5777 5777 5777 5778 5778 5777 5776 5775 5774 5772 5771 5770 5768 5765 5763 5760 5758 5755 5752 5749 5746 5743 5739 5736 5732 5728 5723 5719 5714 5710 5706 5703 5698 5694 5689 5684 5679 5674 5669 5664
5762 5763 5764 5764 5765 5765 5765 5765 5764 5763 5762 5761 5759 5758 5757 5755 5752 5750 5747 5744 5742 5739 5736 5733 5730 5726 5723 5719 5715 5711 5706 5702 5697 5693 5690 5686 5681 5677 5672 5667 5662 5658 5653
5749 5750 5751 5751 5751 5752 5751 5751 5750 5749 5748 5747 5746 5744 5743 5740 5738 5736 5733 5730 5728 5725 5722 5720 5716 5713 5710 5705 5701 5698 5693 5689 5685 5680 5677 5673 5668 5664 5660 5655 5651 5646 5641
5735 5736 5736 5737 5737 5737 5737 5737 5736 5735 5734 5733 5731 5730 5728 5726 5724 5721 5718 5716 5714 5711 5708 5705 5702 5699 5696 5692 5688 5684 5680 5676 5671 5667 5663 5660 5656 5651 5647 5643 5639 5634 5630
5720 5721 5722 5722 5723 5723 5723 5722 5722 5721 5719 5718 5716 5715 5713 5711 5708 5706 5703 5701 5698 5696 5694 5691 5688 5685 5681 5678 5674 5670 5667 5663 5659 5654 5651 5647 5643 5639 5634 5630 5626 5622 5618
5706 5706 5707 5707 5708 5708 5708 5707 5706 5705 5704 5703 5701 5700 5698 5696 5693 5691 5688 5686 5684 5681 5679 5676 5673 5670 5667 5663 5660 5657 5654 5650 5646 5642 5638 5634 5630 5626 5621 5617 5614 5610 5606
5691 5692 5692 5693 5693 5693 5693 5692 5691 5690 5689 5688 5686 5685 5683 5680 5678 5675 5672 5670 5668 5666 5663 5661 5658 5655 5652 5649 5645 5642 5639 5636 5632 5628 5625 5621 5617 5613 5609 5605 5601 5597 5593
5677 5677 5678 5678 5678 5678 5678 5677 5676 5675 5674 5673 5671 5669 5667 5665 5662 5660 5657 5655 5653 5651 5648 5646 5643 5640 5638 5634 5631 5628 5625 5622 5618 5614 5611 5607 5603 5599 5596 5592 5588 5584 5580
5662 5663 5664 5664 5664 5663 5663 5662 5661 5660 5659 5658 5656 5654 5652 5650 5647 5645 5642 5640 5638 5636 5633 5631 5628 5625 5623 5619 5617 5614 5611 5608 5604 5601 5597 5593 5589 5586 5582 5579 5575 5571 5567
5648 5649 5650 5650 5650 5649 5649 5648 5647 5646 5644 5643 5641 5639 5637 5635 5633 5630 5628 5626 5623 5621 5619 5616 5613 5610 5607 5604 5602 5599 5596 5593 5590 5586 5582 5579 5576 5572 5569 5565 5562 5558 5553
5635 5635 5636 5636 5635 5635 5634 5633 5632 5631 5630 5628 5626 5625 5622 5620 5618 5616 5614 5611 5609 5606 5604 5601 5598 5595 5592 5590 5587 5584 5581 5578 5575 5572 5569 5566 5562 5558 5555 5551 5547 5543 5539
5621 5622 5622 5622 5621 5621 5620 5619 5618 5617 5616 5614 5612 5610 5608 5606 5604 5602 5600 5597 5594 5592 5589 5586 5584 5581 5578 5575 5572 5570 5567 5564 5561 5558 5555 5551 5548 5544 5541 5537 5533 5529 5524
5607 5608 5608 5608 5607 5607 5606 5605 5604 5603 5602 5600 5599 5597 5594 5592 5590 5588 5586 5583 5581 5578 5575 5572 5569 5566 5564 5561 5558 5555 5552 5549 5546 5543 5540 5536 5533 5529 5526 5522 5518 5513 5509
5594 5594 5594 5594 5593 5593 5592 5591 5590 5589 5588 5586 5585 5583 5581 5578 5576 5574 5572 5569 5566 5564 5560 5558 5555 5552 5549 5546 5543 5540 5537 5534 5531 5528 5524 5521 5517 5514 5510 5506 5501 5497 5492
5580 5580 5580 5580 5580 5579 5578 5577 5576 5575 5574 5572 5570 5568 5566 5564 5562 5559 5557 5554 5551 5549 5546 5543 5540 5537 5534 5531 5528 5525 5522 5518 5515 5512 5508 5505 5501 5497 5493 5489 5484 5480 5475
5567 5567 5567 5566 5566 5565 5564 5563 5562 5561 5559 5557 5556 5554 5552 5549 5547 5544 5542 5539 5537 5534 5531 5528 5525 5521 5518 5515 5512 5509 5506 5502 5499 5495 5492 5488 5484 5480 5476 5471 5467 5462 5457
5553 5553 5553 5552 5552 5551 5550 5549 5548 5546 5545 5543 5541 5539 5536 5534 5532 5529 5527 5524 5521 5518 5515 5512 5509 5506 5503 5499 5496 5493 5489 5485 5482 5478 5474 5470 5466 5461 5457 5453 5448 5443 5439
5538 5538 5538 5537 5537 5536 5535 5534 5532 5531 5529 5527 5525 5523 5521 5518 5516 5513 5511 5508 5506 5502 5499 5496 5493 5489 5486 5482 5479 5475 5472 5468 5464 5460 5456 5451 5447 5442 5438 5433 5429 5424 5419
5523 5522 5522 5522 5521 5520 5519 5518 5516 5515 5513 5511 5509 5507 5505 5502 5499 5497 5494 5491 5489 5486 5482 5479 5475 5472 5468 5465 5461 5457 5453 5449 5445 5441 5436 5431 5427 5422 5418 5413 5408 5404 5399
5507 5507 5506 5506 5505 5504 5503 5501 5500 5498 5496 5494 5492 5490 5488 5485 5482 5479 5476 5473 5470 5467 5464 5460 5457 5453 5449 5445 5441 5437 5433 5429 5424 5420 5415 5410 5406 5401 5396 5391 5387 5382 5378
5490 5490 5489 5489 5488 5487 5485 5484 5483 5481 5479 5477 5474 5472 5469 5467 5464 5461 5458 5455 5451 5448 5444 5441 5437 5433 5428 5424 5420 5416 5412 5407 5403 5398 5393 5388 5383 5379 5374 5369 5364 5359 5355
5473 5473 5472 5471 5470 5469 5468 5466 5464 5462 5460 5458 5455 5453 5450 5447 5444 5441 5437 5434 5430 5427 5423 5419 5415 5411 5406 5401 5397 5392 5388 5384 5379 5374 5369 5364 5360 5355 5350 5345 5341 5336 5332
5455 5455 5454 5453 5452 5450 5449 5447 5445 5443 5440 5438 5435 5432 5429 5426 5422 5419 5416 5412 5408 5404 5400 5396 5391 5387 5382 5377 5372 5367 5363 5358 5353 5348 5344 5339 5335 5330 5325 5320 5316 5312 5307
5436 5436 5435 5433 5432 5430 5428 5426 5424 5422 5419 5416 5413 5410 5407 5403 5400 5396 5392 5389 5385 5380 5376 5371 5366 5362 5357 5352 5347 5342 5336 5332 5327 5322 5318 5313 5309 5304 5300 5296 5292 5287 5283
5416 5415 5414 5413 5411 5409 5407 5405 5402 5399 5396 5393 5390 5387 5384 5380 5376 5372 5368 5364 5360 5355 5350 5345 5340 5335 5331 5326 5321 5316 5311 5305 5300 5296 5291 5287 5283 5279 5275 5271 5267 5264 5260